{"data":{"norad_id":53887,"intl_designator":"2022-119B","name":"STARLINK-5029","alt_names":[],"object_type":"PAYLOAD","status":"ACTIVE","operator":null,"country":"US","launch_date":"2022-09-24","launch_site_code":"AFETR","launch_vehicle":null,"mission":null,"orbit_class":"UNKNOWN","rcs_meters":null,"size_class":null,"mass_kg":null,"dimensions":null,"purposes":["comms"],"wikipedia_slug":null,"has_3d_model":false,"image_url":null,"decayed_at":null,"tle_current":{"epoch":"2026-05-24T22:28:17.616864Z","epoch_age_seconds":90965,"freshness":"FRESH","line1":"1 53887U 22119B   26144.93631501 -.00003816  00000+0 -22168-3 0  9992","line2":"2 53887  53.2130 341.9454 0001294  86.2453 273.8687 15.08861078203191","mean_motion":15.08861078,"eccentricity":0.0001294,"inclination_deg":53.213,"raan_deg":341.9454,"arg_perigee_deg":86.2453,"mean_anomaly_deg":273.8687,"bstar":-0.00022168,"rev_number":20319,"period_min":95.436221465049,"perigee_km":538.78379731492,"apogee_km":540.57412808607,"semimajor_km":6917.8159627005,"source":"CELESTRAK","updated_at":"2026-05-25T13:38:17.581382Z"}}}